This is the latest recevied weather packets stored in our database for station/object HI8EES-16. If no packets are shown the sender has not sent any weather packets the latest 1 day(s).
| Time | Temp. | Humidity | Pressure | Rain* | Wind** | Luminosity | Snow |
|---|---|---|---|---|---|---|---|
| 1778093388 | 27.22° C | 53% | 1017 hPa | 0 mm | - | - | - |
| 1778088577 | 26.11° C | 57% | 1018 hPa | 0 mm | - | - | - |
| 1778083164 | 26.11° C | 57% | 1019 hPa | 0 mm | - | - | - |
| 1778082563 | 26.11° C | 57% | 1019 hPa | 0 mm | - | - | - |
| 1778081360 | 26.11° C | 57% | 1019 hPa | 0 mm | - | - | - |
| 1778076549 | 23.89° C | 62% | 1019 hPa | 0 mm | - | - | - |
| 1778072940 | 22.22° C | 68% | 1019 hPa | 0 mm | - | - | - |
| 1778071136 | 20.56° C | 75% | 1019 hPa | 0 mm | - | - | - |
| 1778066926 | 17.78° C | 69% | 1018 hPa | 0 mm | - | - | - |
| 1778065122 | 17.78° C | 69% | 1019 hPa | 0 mm | - | - | - |
| 1778063919 | 17.78° C | 69% | 1019 hPa | 0 mm | - | - | - |
| 1778062716 | 17.78° C | 69% | 1019 hPa | 0 mm | - | - | - |
| 1778062114 | 17.78° C | 69% | 1019 hPa | 0 mm | - | - | - |
| 1778061513 | 17.78° C | 69% | 1019 hPa | 0 mm | - | - | - |
| 1778060310 | 17.78° C | 69% | 1019 hPa | 0 mm | - | - | - |
| 1778059108 | 17.78° C | 69% | 1018 hPa | 0 mm | - | - | - |
| 1778057905 | 17.78° C | 69% | 1018 hPa | 0 mm | - | - | - |
| 1778056702 | 17.78° C | 69% | 1018 hPa | 0 mm | - | - | - |
| 1778056101 | 17.78° C | 69% | 1018 hPa | 0 mm | - | - | - |
| 1778054898 | 17.78° C | 69% | 1018 hPa | 0 mm | - | - | - |
| 1778054296 | 17.78° C | 69% | 1018 hPa | 0 mm | - | - | - |
| 1778053695 | 18.33° C | 69% | 1018 hPa | 0 mm | - | - | - |
| 1778053093 | 21.11° C | 86% | 1018 hPa | 0 mm | - | - | - |
| 1778052492 | 21.11° C | 86% | 1018 hPa | 0 mm | - | - | - |
| 1778051289 | 21.11° C | 86% | 1018 hPa | 0 mm | - | - | - |
* Rain latest hour (hover to see other rain measurements)
** Current wind speed in m/s (hover to see current wind gust speed)